Location: Monroe
(41.9160°N, 83.3980°W)
Time: 19:04:56
(UTC-04:00)

Amateur Radio Satellites - All Passes

Search period start: 25 June 2016 18:34
Search period end: 26 June 2016 18:34
Location: Monroe, 41.9160°N, 83.3980°W

Satellite Date Start Highest point End Downlink Frequencies (MHz)
Time Altitude Azimuth
Cubesat XI-IV 25 Jun 18:43:34 18:48:49 60° 72° (ENE) 18:54:06 437.490
BRITE-PL 25 Jun 18:48:49 18:54:02 86° 75° (ENE) 18:58:51 437.365/2234.400
MOZHAYETS 4 25 Jun 18:54:42 18:57:34 16° 297° (WNW) 19:00:26
HO-68 25 Jun 19:00:26 19:05:06 19° 54° (NE) 19:09:45 435.675
CUTE-I 25 Jun 19:19:02 19:24:20 66° 259° (WSW) 19:29:41 437.470
DOVE 4 25 Jun 19:20:52 19:24:53 36° 71° (ENE) 19:28:46 437.250
CANX-2 25 Jun 19:22:36 19:24:01 11° 62° (ENE) 19:25:28 2200.000
LilacSat-2 25 Jun 19:39:38 19:43:01 31° 263° (W) 19:46:27 437.200
GONETS M04 25 Jun 19:39:43 19:48:22 72° 94° (E) 19:57:01
GOMX 1 25 Jun 19:40:32 19:45:15 61° 259° (W) 19:49:40 467.674
DANDE 25 Jun 19:41:39 19:46:21 28° 66° (ENE) 19:50:01 436.750
CUTE 1.7 + AOD 2 25 Jun 19:41:54 19:44:34 16° 64° (ENE) 19:47:13 437.475
SO-50 25 Jun 19:43:02 19:45:40 14° 324° (NW) 19:48:17 436.795
CUSAT 1 25 Jun 19:50:48 19:54:55 81° 79° (ENE) 19:58:05 437.405
NOAA 18 25 Jun 19:51:07 19:55:54 31° 264° (W) 20:00:45 137.9125
SEEDS 25 Jun 19:52:21 19:54:48 15° 64° (ENE) 19:57:16 437.485
Cosmos 2499 25 Jun 19:58:48 20:06:50 64° 92° (E) 20:15:26 435.465 / 435.565
NOAA 15 25 Jun 20:00:21 20:04:15 21° 267° (W) 20:08:09 137.62
STRAND 1 25 Jun 20:10:26 20:14:56 30° 96° (E) 20:19:24 437.568
CUBESAT XI-V 25 Jun 20:12:38 20:15:59 20° 295° (WNW) 20:19:19 437.345
RS-15 25 Jun 20:19:04 20:30:12 37° 34° (NNE) 20:41:21 29.354- 29.394
UWE-3 25 Jun 20:22:57 20:23:11 10° 60° (ENE) 20:23:25 435.000/436.395/437.385
Cubesat XI-IV 25 Jun 20:25:48 20:29:17 18° 269° (W) 20:32:49 437.490
BRITE-PL 25 Jun 20:31:58 20:32:58 10° 271° (W) 20:33:57 437.365/2234.400
AAUSAT CUBESAT 2 25 Jun 20:39:54 20:43:27 27° 69° (ENE) 20:47:00 437.432
CINEMA 3 25 Jun 20:40:53 20:45:02 78° 77° (ENE) 20:49:12 145.822/145.860
HO-68 25 Jun 20:44:41 20:51:51 89° 70° (ENE) 20:59:05 435.675
AUBIESAT-1 25 Jun 20:49:33 20:52:19 25° 65° (ENE) 20:55:05 437.475
CANX-2 25 Jun 20:55:01 20:59:17 71° 259° (WSW) 21:03:35 2200.000
DOVE 4 25 Jun 20:59:32 21:02:42 19° 266° (W) 21:05:48 437.250
CUBEBUG 2 25 Jun 21:00:46 21:04:35 37° 71° (ENE) 21:08:30 437.445
COMPASS 1 25 Jun 21:09:53 21:14:04 74° 76° (ENE) 21:18:18 437.405
CUTE 1.7 + AOD 2 25 Jun 21:15:53 21:20:00 47° 261° (W) 21:24:10 437.475
DELFI C3 25 Jun 21:20:59 21:23:07 14° 64° (ENE) 21:25:15 145.870
DANDE 25 Jun 21:24:38 21:29:05 27° 275° (W) 21:32:36 436.750
M-CUBED/EXP-1 PRIME 25 Jun 21:25:24 21:28:42 81° 250° (WSW) 21:31:59 437.505
SEEDS 25 Jun 21:25:58 21:30:05 50° 261° (W) 21:34:15 437.485
PRISM 25 Jun 21:30:56 21:34:27 27° 96° (E) 21:37:55 437.425
GONETS M04 25 Jun 21:39:06 21:46:00 26° 294° (WNW) 21:52:56
ZACube-1 25 Jun 21:41:26 21:45:27 47° 72° (ENE) 21:49:33 437.345
STRAND 1 25 Jun 21:49:29 21:54:06 34° 293° (WNW) 21:58:41 437.568
HUMSAT D 25 Jun 21:49:31 21:51:45 14° 64° (ENE) 21:54:01 437.325/437.525
AO-85 25 Jun 21:52:00 21:54:58 15° 107° (ESE) 21:57:53 145.980
Cosmos 2499 25 Jun 21:53:37 22:00:37 29° 293° (WNW) 22:08:00 435.465 / 435.565
UWE-3 25 Jun 21:54:49 21:58:58 78° 259° (WSW) 22:03:14 435.000/436.395/437.385
Oscar 11 25 Jun 21:57:30 22:01:50 81° 75° (ENE) 22:06:13 145.826/435.025
FUNcube-1 25 Jun 22:00:42 22:04:50 75° 77° (ENE) 22:09:07 145.935
AAUSAT CUBESAT 2 25 Jun 22:15:24 22:18:52 25° 265° (W) 22:22:24 437.432
AUBIESAT-1 25 Jun 22:24:39 22:26:52 17° 260° (W) 22:29:04 437.475
RS-15 25 Jun 22:31:53 22:44:17 85° 239° (WSW) 22:56:32 29.354- 29.394
HO-68 25 Jun 22:36:18 22:40:27 16° 271° (W) 22:44:37 435.675
CUBEBUG 2 25 Jun 22:38:33 22:41:23 18° 268° (W) 22:44:15 437.445
TIGRISAT 25 Jun 22:52:44 22:55:34 16° 91° (E) 22:58:24 435.000
DELFI C3 25 Jun 22:53:39 22:57:33 49° 261° (W) 23:01:30 145.870
UNISAT 6 25 Jun 22:56:25 22:59:39 18° 92° (E) 23:02:53 437.425
PRISM 25 Jun 23:06:20 23:09:39 24° 293° (WNW) 23:12:57 437.425
DX 1 25 Jun 23:13:38 23:15:08 12° 61° (ENE) 23:16:38 434.975-435.025
ZACube-1 25 Jun 23:19:44 23:22:01 14° 269° (W) 23:24:21 437.345
HUMSAT D 25 Jun 23:22:52 23:26:55 52° 260° (W) 23:31:03 437.325/437.525
AO-85 25 Jun 23:29:25 23:34:52 82° 302° (WNW) 23:40:09 145.980
ANTELSAT 25 Jun 23:35:25 23:39:53 46° 99° (E) 23:44:23 437.575/2403.000
VELOX 1 25 Jun 23:35:31 23:39:05 24° 67° (ENE) 23:42:39 145.980
CUBEBUG 1 25 Jun 23:35:55 23:39:32 26° 68° (ENE) 23:43:08 437.445
YUBILEINY 25 Jun 23:53:00 00:00:23 29° 67° (ENE) 00:07:44 435.215
QB50P1 25 Jun 23:53:28 23:54:38 11° 90° (E) 23:55:48 145.935-145.965
POPSAT HIP 1 25 Jun 23:56:02 23:57:34 12° 90° (E) 23:59:05 437.405
ESTCUBE 1 25 Jun 23:57:33 00:02:03 66° 74° (ENE) 00:06:34 437.505/2401.250
QB50P2 26 Jun 00:06:25 00:09:13 17° 93° (E) 00:12:00 145.880/145.840
POLYITAN 1 26 Jun 00:08:59 00:11:51 17° 93° (E) 00:14:42 437.675
DUCHIFAT 1 26 Jun 00:13:07 00:15:53 17° 93° (E) 00:18:37 145.980
AISAT 26 Jun 00:15:00 00:19:22 67° 74° (ENE) 00:23:45 437.250
50 SAT 26 Jun 00:23:44 00:27:26 90° 78° (ENE) 00:31:12 437.505
TIGRISAT 26 Jun 00:28:02 00:32:32 53° 287° (WNW) 00:37:05 435.000
UNISAT 6 26 Jun 00:32:08 00:36:33 46° 288° (WNW) 00:41:01 437.425
UKube-1 26 Jun 00:32:33 00:36:49 63° 73° (ENE) 00:41:05 .
TISAT 1 26 Jun 00:39:14 00:41:09 13° 63° (ENE) 00:43:04 437.305
SPROUT 26 Jun 00:40:24 00:44:30 49° 73° (ENE) 00:48:37 437.525
DX 1 26 Jun 00:46:23 00:50:44 73° 258° (WSW) 00:55:05 434.975-435.025
RS-15 26 Jun 00:46:25 00:54:56 23° 261° (W) 01:03:25 29.354- 29.394
SO-50 26 Jun 00:51:17 00:54:29 18° 39° (NE) 00:57:38 436.795
Cosmos 2491 26 Jun 01:02:01 01:09:45 37° 85° (E) 01:17:27 435.465 / 435.565
Cosmos 2504 26 Jun 01:05:13 01:12:25 26° 65° (ENE) 01:19:25 435.465 / 435.565
VELOX 1 26 Jun 01:11:28 01:15:24 32° 263° (W) 01:19:22 145.980
CUBEBUG 1 26 Jun 01:11:55 01:15:43 29° 264° (W) 01:19:32 437.445
AO-85 26 Jun 01:12:40 01:16:07 17° 322° (NW) 01:19:28 145.980
ANTELSAT 26 Jun 01:12:59 01:16:15 20° 295° (WNW) 01:19:34 437.575/2403.000
JAS-2 26 Jun 01:14:23 01:18:30 20° 90° (E) 01:22:22 435.910
BUGSAT 1 26 Jun 01:21:20 01:25:14 42° 99° (E) 01:29:09 437.445
NANOSAT C BR1 26 Jun 01:25:27 01:29:40 70° 285° (WNW) 01:33:53 145.865
QB50P1 26 Jun 01:26:36 01:30:49 64° 286° (WNW) 01:35:01 145.935-145.965
POPSAT HIP 1 26 Jun 01:29:31 01:33:43 61° 286° (WNW) 01:37:55 437.405
ITUPSAT 1 26 Jun 01:36:52 01:38:52 13° 60° (ENE) 01:40:53 437.325
ESTCUBE 1 26 Jun 01:37:28 01:39:17 12° 270° (W) 01:41:07 437.505/2401.250
BEESAT 26 Jun 01:37:46 01:39:55 13° 60° (ENE) 01:42:03 436.000
QB50P2 26 Jun 01:41:11 01:45:12 42° 288° (WNW) 01:49:13 145.880/145.840
POLYITAN 1 26 Jun 01:43:48 01:47:49 41° 288° (WNW) 01:51:50 437.675
Oscar 19 26 Jun 01:44:15 01:46:31 13° 89° (E) 01:48:45 437.125/150
DUCHIFAT 1 26 Jun 01:47:46 01:51:45 41° 288° (WNW) 01:55:45 145.980
YUBILEINY 26 Jun 01:49:07 01:57:50 66° 268° (W) 02:06:32 435.215
AISAT 26 Jun 01:54:54 01:56:17 11° 270° (W) 01:57:39 437.250
UKube-1 26 Jun 02:11:45 02:13:15 12° 270° (W) 02:14:46 .
TISAT 1 26 Jun 02:12:12 02:16:18 58° 259° (W) 02:20:26 437.305
SPROUT 26 Jun 02:18:26 02:20:43 14° 269° (W) 02:23:02 437.525
SO-50 26 Jun 02:30:51 02:35:32 74° 239° (WSW) 02:40:01 436.795
SWISSCUBE 26 Jun 02:46:38 02:51:22 66° 73° (ENE) 02:56:09 437.505
BUGSAT 1 26 Jun 02:57:43 03:00:17 16° 295° (WNW) 03:02:52 437.445
Cosmos 2504 26 Jun 02:57:46 03:06:40 73° 266° (W) 03:15:12 435.465 / 435.565
Cosmos 2491 26 Jun 02:57:51 03:06:17 50° 285° (WNW) 03:14:45 435.465 / 435.565
JAS-2 26 Jun 02:58:26 03:04:04 51° 291° (WNW) 03:09:12 435.910
BEESAT 3 26 Jun 03:00:16 03:00:55 10° 108° (ESE) 03:01:33 437.485
PCSat 26 Jun 03:01:09 03:05:54 32° 110° (ESE) 03:10:40 145.827
O/OREOS (USA 219) 26 Jun 03:02:08 03:04:12 13° 98° (E) 03:06:17 437.305
ITUPSAT 1 26 Jun 03:11:14 03:16:02 81° 258° (WSW) 03:20:52 437.325
BEESAT 26 Jun 03:12:16 03:17:02 77° 257° (WSW) 03:21:52 436.000
Gurwin Techsat 1B 26 Jun 03:13:51 03:18:53 41° 98° (E) 03:23:52 435.225
KKS-1 26 Jun 03:15:36 03:17:58 14° 62° (ENE) 03:20:21 437.445
Oscar 19 26 Jun 03:21:15 03:26:23 75° 286° (WNW) 03:31:29 437.125/150
BEESAT 2 26 Jun 03:30:49 03:32:38 13° 109° (ESE) 03:34:27 435.950
ITAMSAT 1 26 Jun 03:37:40 03:41:55 24° 94° (E) 03:46:06 435.822/435.867
YUBILEINY 26 Jun 03:50:21 03:52:46 11° 288° (WNW) 03:55:11 435.215
AO-7 26 Jun 03:54:13 03:59:49 19° 91° (E) 04:05:22 29.400- 29.500
STARS 26 Jun 03:55:14 03:58:15 19° 65° (ENE) 04:01:17 437.465
MOZHAYETS 4 26 Jun 04:18:11 04:22:40 54° 73° (ENE) 04:27:13
SWISSCUBE 26 Jun 04:27:15 04:29:36 13° 270° (W) 04:31:57 437.505
BEESAT 3 26 Jun 04:34:07 04:38:01 68° 305° (NW) 04:41:57 437.485
O/OREOS (USA 219) 26 Jun 04:38:37 04:43:04 60° 295° (WNW) 04:47:30 437.305
AIST 1 26 Jun 04:41:07 04:44:37 24° 74° (ENE) 04:48:06
PCSat 26 Jun 04:44:09 04:49:10 38° 308° (NW) 04:54:16 145.827
KKS-1 26 Jun 04:49:41 04:54:03 59° 259° (W) 04:58:26 437.445
Gurwin Techsat 1B 26 Jun 04:54:13 04:58:37 27° 295° (WNW) 05:02:59 435.225
Cosmos 2504 26 Jun 04:54:17 04:58:21 14° 286° (WNW) 05:02:23 435.465 / 435.565
Oscar 19 26 Jun 05:04:22 05:04:48 10° 304° (WNW) 05:05:14 437.125/150
BEESAT 2 26 Jun 05:06:05 05:09:59 56° 306° (NW) 05:13:56 435.950
ITAMSAT 1 26 Jun 05:16:35 05:21:31 42° 291° (WNW) 05:26:24 435.822/435.867
AIST 2 26 Jun 05:26:03 05:27:45 12° 108° (ESE) 05:29:27 435.215
STARS 26 Jun 05:30:11 05:34:18 42° 261° (W) 05:38:28 437.465
CUBESAT XI-V 26 Jun 05:37:49 05:42:16 44° 71° (ENE) 05:46:45 437.345
AO-7 26 Jun 05:45:07 05:53:34 88° 288° (WNW) 06:01:56 29.400- 29.500
GONETS M04 26 Jun 05:49:48 05:57:40 36° 71° (ENE) 06:05:31
Cosmos 2499 26 Jun 05:50:27 05:57:26 25° 64° (ENE) 06:04:08 435.465 / 435.565
MOZHAYETS 4 26 Jun 05:57:28 06:00:10 15° 269° (W) 06:02:53
HORYU 2 26 Jun 06:05:49 06:10:06 42° 99° (E) 06:14:21 437.375
AIST 1 26 Jun 06:18:36 06:22:09 26° 271° (W) 06:25:42
AO-85 26 Jun 06:22:22 06:25:05 15° 36° (NE) 06:27:41 145.980
NOAA 18 26 Jun 06:33:17 06:36:08 14° 90° (E) 06:38:57 137.9125
NOAA 15 26 Jun 06:34:53 06:38:26 18° 92° (E) 06:41:57 137.62
BRITE-PL 26 Jun 06:54:02 06:57:18 22° 94° (E) 07:00:34 437.365/2234.400
Cubesat XI-IV 26 Jun 07:01:05 07:05:21 23° 93° (E) 07:09:35 437.490
AIST 2 26 Jun 07:01:37 07:05:42 63° 305° (NW) 07:09:48 435.215
CUSAT 1 26 Jun 07:10:53 07:15:30 17° 84° (E) 07:19:47 437.405
LilacSat-2 26 Jun 07:12:32 07:15:46 25° 95° (E) 07:19:00 437.200
CUBESAT XI-V 26 Jun 07:16:28 07:19:51 19° 268° (W) 07:23:14 437.345
STRAND 1 26 Jun 07:26:26 07:31:17 44° 70° (ENE) 07:36:11 437.568
CUTE-I 26 Jun 07:35:44 07:40:56 48° 99° (E) 07:46:07 437.470
AO-7 26 Jun 07:39:18 07:45:14 22° 309° (NW) 07:51:10 29.400- 29.500
GOMX 1 26 Jun 07:41:47 07:45:34 33° 97° (E) 07:49:27 467.674
Cosmos 2499 26 Jun 07:42:40 07:51:30 75° 266° (W) 07:59:49 435.465 / 435.565
HORYU 2 26 Jun 07:43:07 07:46:21 20° 295° (WNW) 07:49:35 437.375
GONETS M04 26 Jun 07:46:25 07:54:43 51° 271° (W) 08:03:02
AO-85 26 Jun 08:01:44 08:06:18 86° 238° (WSW) 08:10:26 145.980
PHONESAT 2.4 26 Jun 08:10:52 08:12:31 14° 150° (SSE) 08:14:08 2401.200-2431.200
NOAA 18 26 Jun 08:11:48 08:17:22 78° 286° (WNW) 08:22:54 137.9125
NOAA 15 26 Jun 08:13:25 08:18:34 57° 289° (WNW) 08:23:40 137.62
HO-68 26 Jun 08:13:57 08:18:11 16° 89° (E) 08:22:23 435.675
PRISM 26 Jun 08:20:55 08:24:08 22° 67° (ENE) 08:27:21 437.425
BRITE-PL 26 Jun 08:32:16 08:35:51 28° 291° (WNW) 08:39:25 437.365/2234.400
CINEMA 3 26 Jun 08:35:23 08:38:33 18° 93° (E) 08:41:47 145.822/145.860
Cubesat XI-IV 26 Jun 08:40:29 08:45:37 46° 290° (WNW) 08:50:44 437.490
CANX-2 26 Jun 08:40:33 08:43:40 19° 93° (E) 08:46:45 2200.000
AIST 2 26 Jun 08:44:44 08:45:02 10° 325° (NW) 08:45:19 435.215
DANDE 26 Jun 08:45:21 08:53:15 48° 91° (E) 09:00:48 436.750
LilacSat-2 26 Jun 08:46:51 08:49:58 24° 291° (WNW) 08:53:06 437.200
CUSAT 1 26 Jun 08:48:57 08:56:56 87° 99° (E) 09:03:49 437.405
COMPASS 1 26 Jun 08:54:38 08:56:04 11° 90° (E) 08:57:30 437.405
DOVE 4 26 Jun 08:55:49 09:00:05 82° 284° (WNW) 09:04:34 437.250
CUTE 1.7 + AOD 2 26 Jun 09:00:39 09:04:22 28° 95° (E) 09:08:02 437.475
STRAND 1 26 Jun 09:06:40 09:10:39 23° 267° (W) 09:14:40 437.568
SEEDS 26 Jun 09:09:52 09:13:24 25° 95° (E) 09:16:53 437.485
CUTE-I 26 Jun 09:16:29 09:20:40 23° 297° (WNW) 09:24:50 437.470
GOMX 1 26 Jun 09:20:24 09:23:31 21° 293° (WNW) 09:26:41 467.674
Cosmos 2499 26 Jun 09:38:46 09:42:57 14° 286° (WNW) 09:47:03 435.465 / 435.565
UWE-3 26 Jun 09:44:20 09:47:52 22° 94° (E) 09:51:25 435.000/436.395/437.385
PHONESAT 2.4 26 Jun 09:45:44 09:48:41 44° 166° (SSE) 09:51:38 2401.200-2431.200
Oscar 11 26 Jun 09:45:49 09:48:15 15° 91° (E) 09:50:40 145.826/435.025
FUNcube-1 26 Jun 09:49:27 09:52:04 15° 91° (E) 09:54:41 145.935
TIGRISAT 26 Jun 09:52:41 09:54:55 14° 62° (ENE) 09:57:12 435.000
NOAA 18 26 Jun 09:55:07 09:57:06 12° 305° (NW) 09:59:07 137.9125
PRISM 26 Jun 09:55:32 09:59:16 31° 263° (W) 10:03:00 437.425
UNISAT 6 26 Jun 09:56:23 09:59:04 16° 64° (ENE) 10:01:47 437.425
AAUSAT CUBESAT 2 26 Jun 09:56:31 10:00:34 46° 99° (E) 10:04:34 437.432
HO-68 26 Jun 09:59:31 10:06:46 89° 286° (WNW) 10:13:59 435.675
AUBIESAT-1 26 Jun 10:01:06 10:04:06 21° 101° (E) 10:07:14 437.475
CINEMA 3 26 Jun 10:11:35 10:15:50 44° 288° (WNW) 10:20:16 145.822/145.860
CANX-2 26 Jun 10:15:41 10:19:39 37° 289° (WNW) 10:23:34 2200.000
ISS 26 Jun 10:19:13 10:22:18 40° 138° (SE) 10:25:24 145.825
CUBEBUG 2 26 Jun 10:26:44 10:31:19 86° 98° (E) 10:36:02 437.445
COMPASS 1 26 Jun 10:27:52 10:32:01 59° 286° (WNW) 10:36:07 437.405
DANDE 26 Jun 10:28:17 10:36:08 42° 288° (WNW) 10:43:37 436.750
DELFI C3 26 Jun 10:31:37 10:34:33 19° 93° (E) 10:37:28 145.870
CUSAT 1 26 Jun 10:34:18 10:39:33 20° 293° (WNW) 10:44:22 437.405
ANTELSAT 26 Jun 10:34:42 10:38:42 39° 71° (ENE) 10:42:47 437.575/2403.000
CUTE 1.7 + AOD 2 26 Jun 10:36:33 10:40:06 26° 292° (WNW) 10:43:39 437.475
M-CUBED/EXP-1 PRIME 26 Jun 10:37:22 10:41:10 67° 107° (ESE) 10:45:16 437.505
SEEDS 26 Jun 10:45:25 10:49:03 28° 291° (WNW) 10:52:40 437.485
RS-15 26 Jun 10:52:15 10:56:06 12° 93° (E) 11:00:00 29.354- 29.394
QB50P2 26 Jun 11:00:15 11:02:28 14° 63° (ENE) 11:04:40 145.880/145.840
POLYITAN 1 26 Jun 11:02:48 11:05:04 14° 63° (ENE) 11:07:20 437.675
ZACube-1 26 Jun 11:04:59 11:09:31 81° 285° (WNW) 11:14:06 437.345
HUMSAT D 26 Jun 11:06:15 11:09:46 24° 94° (E) 11:13:15 437.325/437.525
DUCHIFAT 1 26 Jun 11:06:17 11:08:23 14° 63° (ENE) 11:10:29 145.980
Cosmos 2491 26 Jun 11:12:11 11:17:47 18° 60° (ENE) 11:23:19 435.465 / 435.565
BEESAT 3 26 Jun 11:15:39 11:16:34 11° 37° (NE) 11:17:29 437.485
UWE-3 26 Jun 11:20:11 11:24:24 38° 289° (WNW) 11:28:42 435.000/436.395/437.385
Oscar 11 26 Jun 11:20:26 11:24:41 51° 287° (WNW) 11:28:53 145.826/435.025
PHONESAT 2.4 26 Jun 11:22:06 11:25:10 67° 183° (S) 11:28:14 2401.200-2431.200
FUNcube-1 26 Jun 11:24:11 11:28:35 54° 287° (WNW) 11:33:02 145.935
TIGRISAT 26 Jun 11:26:56 11:31:07 57° 260° (W) 11:35:25 435.000
JAS-2 26 Jun 11:27:44 11:31:38 15° 56° (NE) 11:35:21 435.910
UNISAT 6 26 Jun 11:31:14 11:35:22 48° 261° (W) 11:39:37 437.425
AAUSAT CUBESAT 2 26 Jun 11:33:09 11:35:40 16° 295° (WNW) 11:38:09 437.432
AUBIESAT-1 26 Jun 11:35:09 11:38:35 32° 294° (WNW) 11:42:14 437.475
BEESAT 2 26 Jun 11:47:31 11:49:17 12° 39° (NE) 11:51:02 435.950
PCSat 26 Jun 11:48:12 11:52:59 30° 49° (NE) 11:57:43 145.827
HO-68 26 Jun 11:48:49 11:53:32 19° 306° (NW) 11:58:14 435.675
ESTCUBE 1 26 Jun 11:51:28 11:53:38 13° 90° (E) 11:55:48 437.505/2401.250
ISS 26 Jun 11:55:53 11:58:49 30° 336° (NNW) 12:01:45 145.825
DELFI C3 26 Jun 12:05:55 12:09:29 31° 289° (WNW) 12:13:00 145.870
CUBEBUG 2 26 Jun 12:06:07 12:07:18 11° 299° (WNW) 12:08:28 437.445
AISAT 26 Jun 12:06:51 12:08:33 12° 90° (E) 12:10:16 437.250
BUGSAT 1 26 Jun 12:11:34 12:15:06 30° 70° (ENE) 12:18:38 437.445
ANTELSAT 26 Jun 12:12:38 12:15:36 18° 268° (W) 12:18:37 437.575/2403.000
M-CUBED/EXP-1 PRIME 26 Jun 12:14:13 12:15:19 11° 301° (WNW) 12:16:27 437.505
NANOSAT C BR1 26 Jun 12:17:31 12:21:42 88° 69° (ENE) 12:25:55 145.865
QB50P1 26 Jun 12:18:59 12:23:10 85° 257° (WSW) 12:27:24 145.935-145.965
POPSAT HIP 1 26 Jun 12:21:57 12:26:08 80° 257° (WSW) 12:30:20 437.405
QB50P2 26 Jun 12:33:42 12:37:48 54° 260° (W) 12:41:57 145.880/145.840
DX 1 26 Jun 12:35:07 12:38:08 18° 93° (E) 12:41:07 434.975-435.025
POLYITAN 1 26 Jun 12:36:21 12:40:26 52° 260° (W) 12:44:33 437.675
DUCHIFAT 1 26 Jun 12:39:32 12:43:37 55° 260° (W) 12:47:43 145.980
HUMSAT D 26 Jun 12:41:36 12:45:23 30° 291° (WNW) 12:49:09 437.325/437.525
BEESAT 3 26 Jun 12:51:00 12:54:58 75° 57° (ENE) 12:58:54 437.485
RS-15 26 Jun 12:54:40 13:05:45 63° 114° (ESE) 13:17:29 29.354- 29.394
YUBILEINY 26 Jun 12:55:06 13:02:22 31° 83° (E) 13:09:41 435.215
PHONESAT 2.4 26 Jun 12:58:46 13:01:36 34° 199° (SSW) 13:04:26 2401.200-2431.200
CUBEBUG 1 26 Jun 12:59:25 13:03:37 47° 99° (E) 13:07:46 437.445
VELOX 1 26 Jun 13:00:38 13:04:50 44° 99° (E) 13:09:02 145.980
Oscar 19 26 Jun 13:00:48 13:04:37 21° 63° (ENE) 13:08:25 437.125/150
Cosmos 2491 26 Jun 13:07:16 13:16:02 85° 82° (E) 13:24:46 435.465 / 435.565
JAS-2 26 Jun 13:07:56 13:15:37 72° 73° (ENE) 13:22:41 435.910
O/OREOS (USA 219) 26 Jun 13:09:18 13:13:11 28° 59° (ENE) 13:17:04 437.305
BEESAT 2 26 Jun 13:23:42 13:27:43 88° 238° (WSW) 13:31:41 435.950
50 SAT 26 Jun 13:26:00 13:29:42 74° 285° (WNW) 13:33:22 437.505
ESTCUBE 1 26 Jun 13:26:23 13:30:50 59° 287° (WNW) 13:35:14 437.505/2401.250
PCSat 26 Jun 13:31:24 13:36:30 43° 248° (WSW) 13:41:34 145.827
ISS 26 Jun 13:34:01 13:36:02 15° 356° (N) 13:38:02 145.825
AISAT 26 Jun 13:41:05 13:45:26 62° 286° (WNW) 13:49:46 437.250
AIST 2 26 Jun 13:45:37 13:47:38 13° 39° (NE) 13:49:38 435.215
Cosmos 2504 26 Jun 13:45:59 13:51:13 19° 77° (ENE) 13:56:38 435.465 / 435.565
BUGSAT 1 26 Jun 13:47:29 13:50:31 20° 266° (W) 13:53:33 437.445
UKube-1 26 Jun 13:55:07 13:59:25 74° 285° (WNW) 14:03:42 .
TISAT 1 26 Jun 13:56:22 13:59:29 20° 94° (E) 14:02:36 437.305
SPROUT 26 Jun 14:01:32 14:05:50 87° 287° (WNW) 14:10:07 437.525
DX 1 26 Jun 14:10:25 14:14:29 40° 289° (WNW) 14:18:31 434.975-435.025
Gurwin Techsat 1B 26 Jun 14:35:09 14:40:25 67° 73° (ENE) 14:45:42 435.225
CUBEBUG 1 26 Jun 14:36:49 14:39:31 16° 296° (WNW) 14:42:13 437.445
VELOX 1 26 Jun 14:38:01 14:40:58 18° 296° (WNW) 14:43:56 145.980
Oscar 19 26 Jun 14:38:35 14:43:34 50° 260° (W) 14:48:35 437.125/150
SWISSCUBE 26 Jun 14:47:44 14:50:42 16° 92° (E) 14:53:39 437.505
O/OREOS (USA 219) 26 Jun 14:48:41 14:52:32 29° 256° (WSW) 14:56:23 437.305
YUBILEINY 26 Jun 14:50:07 14:58:37 58° 283° (WNW) 15:07:16 435.215
AO-7 26 Jun 14:53:25 15:00:21 31° 56° (NE) 15:07:20 29.400- 29.500
JAS-2 26 Jun 14:55:10 15:01:01 23° 268° (W) 15:06:37 435.910
ITAMSAT 1 26 Jun 14:55:44 15:00:32 39° 68° (ENE) 15:05:22 435.822/435.867
Cosmos 2491 26 Jun 15:06:00 15:11:41 20° 282° (WNW) 15:17:23 435.465 / 435.565
RS-15 26 Jun 15:07:50 15:18:48 46° 319° (NW) 15:30:22 29.354- 29.394
ISS 26 Jun 15:10:49 15:13:22 21° 17° (NNE) 15:15:56 145.825
ITUPSAT 1 26 Jun 15:11:55 15:15:53 25° 95° (E) 15:19:49 437.325
BEESAT 26 Jun 15:12:30 15:16:31 26° 95° (E) 15:20:30 436.000
AIST 2 26 Jun 15:22:33 15:26:44 89° 203° (SSW) 15:30:53 435.215
TISAT 1 26 Jun 15:31:24 15:35:13 34° 290° (WNW) 15:39:01 437.305
Cosmos 2504 26 Jun 15:35:15 15:43:17 86° 277° (W) 15:52:00 435.465 / 435.565
MOZHAYETS 4 26 Jun 16:14:45 16:16:44 13° 89° (E) 16:18:43
Gurwin Techsat 1B 26 Jun 16:17:46 16:20:50 15° 270° (W) 16:23:56 435.225
SWISSCUBE 26 Jun 16:24:08 16:28:50 55° 288° (WNW) 16:33:29 437.505
ITAMSAT 1 26 Jun 16:35:45 16:40:05 26° 265° (W) 16:44:28 435.822/435.867
KKS-1 26 Jun 16:40:37 16:44:17 25° 95° (E) 16:47:55 437.445
AO-7 26 Jun 16:44:17 16:52:32 66° 255° (WSW) 17:00:54 29.400- 29.500
SO-50 26 Jun 16:45:08 16:49:31 34° 115° (ESE) 16:53:55 436.795
ISS 26 Jun 16:46:54 16:50:11 88° 26° (NNE) 16:53:26 145.825
ITUPSAT 1 26 Jun 16:49:23 16:53:46 35° 291° (WNW) 16:58:07 437.325
BEESAT 26 Jun 16:50:01 16:54:20 34° 291° (WNW) 16:58:37 436.000
YUBILEINY 26 Jun 16:55:27 16:57:43 11° 307° (NW) 16:59:59 435.215
HORYU 2 26 Jun 17:04:03 17:08:11 40° 71° (ENE) 17:12:21 437.375
AIST 1 26 Jun 17:12:05 17:14:27 15° 85° (E) 17:16:48
STARS 26 Jun 17:19:05 17:23:02 32° 97° (E) 17:26:58 437.465
CUTE-I 26 Jun 17:22:07 17:23:59 12° 57° (ENE) 17:25:52 437.470
RS-15 26 Jun 17:26:20 17:35:33 24° 352° (N) 17:45:01 29.354- 29.394
Cosmos 2504 26 Jun 17:32:43 17:38:08 19° 300° (WNW) 17:43:46 435.465 / 435.565
CUBESAT XI-V 26 Jun 17:37:11 17:37:42 10° 88° (E) 17:38:14 437.345
MOZHAYETS 4 26 Jun 17:49:44 17:54:21 66° 286° (WNW) 17:58:56
NOAA 15 26 Jun 17:54:53 17:59:29 31° 66° (ENE) 18:04:06 137.62
LilacSat-2 26 Jun 17:56:09 17:58:06 14° 65° (ENE) 18:00:05 437.200
NOAA 18 26 Jun 17:59:08 18:03:46 29° 64° (ENE) 18:08:24 137.9125
BRITE-PL 26 Jun 18:04:28 18:08:59 32° 70° (ENE) 18:13:13 437.365/2234.400
KKS-1 26 Jun 18:16:56 18:20:51 31° 291° (WNW) 18:24:46 437.445
Cubesat XI-IV 26 Jun 18:23:11 18:28:07 40° 68° (ENE) 18:33:06 437.490
ISS 26 Jun 18:25:24 18:26:09 11° 231° (SW) 18:26:53 145.825
SO-50 26 Jun 18:25:33 18:30:00 34° 312° (NW) 18:34:26 436.795
